When you browse on this site, cookies collect data to enhance your experience and personalize the content and advertising you see.
Visit our Privacy Policy to learn more. By continuing to use the site, you agree to this use of cookies and data.
  • In Hungary
  • List of Countries
  • For 7 days
  • Water Temperature
  • Satellite Maps
  • Weather Map
  • News
  • Weather Widgets
  • user-avatar
    Login

    Hourly Weather Skotniki

    Today, 22 May, Wednesday

    Time Temperature Precipitation Wind Pressure Humidity
    00:00 +13°C° 0.6 mm 3 mps 733 mmHg 96%
    01:00 +13°C° 0.6 mm 3 mps 733 mmHg 97%
    02:00 +13°C° 1 mm 3 mps 733 mmHg 97%
    03:00 +13°C° 1 mm 4 mps 734 mmHg 97%
    04:00 +13°C° 1 mm 4 mps 734 mmHg 98%
    05:00 +13°C° 0.6 mm 4 mps 734 mmHg 97%
    06:00 +14°C° 0.6 mm 5 mps 734 mmHg 96%
    07:00 +14°C° 0.6 mm 5 mps 734 mmHg 95%
    08:00 +14°C° 0.5 mm 5 mps 735 mmHg 94%
    09:00 +15°C° 0.5 mm 6 mps 735 mmHg 93%
    10:00 +15°C° 0.5 mm 7 mps 735 mmHg 91%
    11:00 +15°C° 0.7 mm 7 mps 736 mmHg 92%
    12:00 +14°C° 0.7 mm 7 mps 736 mmHg 93%
    13:00 +14°C° 0.7 mm 7 mps 736 mmHg 93%
    14:00 +14°C° 0.4 mm 7 mps 736 mmHg 93%
    15:00 +14°C° 0.4 mm 7 mps 736 mmHg 93%
    16:00 +14°C° 0.4 mm 7 mps 737 mmHg 93%
    17:00 +12°C° 0.1 mm 7 mps 737 mmHg 93%
    18:00 +12°C° 0.1 mm 7 mps 737 mmHg 93%
    19:00 +12°C° 0.1 mm 7 mps 738 mmHg 93%
    20:00 +11°C° 0.2 mm 7 mps 738 mmHg 93%
    21:00 +11°C° 0.2 mm 7 mps 738 mmHg 94%
    22:00 +11°C° 0.2 mm 7 mps 739 mmHg 94%
    23:00 +11°C° 0.1 mm 7 mps 739 mmHg 94%

    Tomorrow, 23 May, Thursday

    Time Temperature Precipitation Wind Pressure Humidity
    00:00 +10°C° 0.1 mm 7 mps 739 mmHg 94%
    01:00 +10°C° 0.1 mm 7 mps 739 mmHg 94%
    02:00 +10°C° 0.1 mm 7 mps 740 mmHg 94%
    03:00 +10°C° 0.1 mm 6 mps 740 mmHg 94%
    04:00 +9°C° 0.1 mm 6 mps 740 mmHg 94%
    05:00 +9°C° 0.2 mm 6 mps 740 mmHg 94%
    06:00 +9°C° 0.2 mm 6 mps 741 mmHg 94%
    07:00 +9°C° 0.2 mm 6 mps 741 mmHg 94%
    08:00 +9°C° 0.1 mm 6 mps 742 mmHg 92%
    09:00 +9°C° 0.1 mm 7 mps 742 mmHg 90%
    10:00 +9°C° 0.1 mm 7 mps 742 mmHg 89%
    11:00 +10°C° 0 mm 7 mps 743 mmHg 82%
    12:00 +11°C° 0 mm 6 mps 743 mmHg 76%
    13:00 +13°C° 0 mm 6 mps 743 mmHg 69%
    14:00 +14°C° 0 mm 6 mps 743 mmHg 65%
    15:00 +15°C° 0 mm 5 mps 742 mmHg 61%
    16:00 +16°C° 0 mm 5 mps 742 mmHg 57%
    17:00 +15°C° 0 mm 4 mps 742 mmHg 62%
    18:00 +16°C° 0 mm 3 mps 742 mmHg 68%
    19:00 +15°C° 0 mm 2 mps 742 mmHg 73%
    20:00 +13°C° 0 mm 2 mps 743 mmHg 75%
    21:00 +12°C° 0 mm 2 mps 743 mmHg 77%
    22:00 +9°C° 0 mm 2 mps 743 mmHg 79%
    23:00 +9°C° 0 mm 2 mps 743 mmHg 80%

    Day after tomorrow, 24 May, Friday

    Time Temperature Precipitation Wind Pressure Humidity
    00:00 +8°C° 0 mm 2 mps 743 mmHg 81%
    01:00 +7°C° 0 mm 2 mps 743 mmHg 82%
    02:00 +8°C° 0 mm 1 mps 743 mmHg 82%
    03:00 +7°C° 0 mm 1 mps 743 mmHg 81%
    04:00 +7°C° 0 mm 1 mps 743 mmHg 81%
    05:00 +9°C° 0 mm 1 mps 743 mmHg 77%
    06:00 +11°C° 0 mm 1 mps 743 mmHg 72%
    07:00 +13°C° 0 mm 1 mps 743 mmHg 68%
    08:00 +14°C° 0 mm 1 mps 743 mmHg 65%
    09:00 +16°C° 0 mm 2 mps 742 mmHg 61%
    10:00 +17°C° 0 mm 2 mps 742 mmHg 58%
    11:00 +18°C° 0 mm 2 mps 742 mmHg 57%
    12:00 +19°C° 0 mm 2 mps 742 mmHg 55%
    13:00 +20°C° 0 mm 2 mps 741 mmHg 54%
    14:00 +20°C° 0 mm 2 mps 741 mmHg 55%
    15:00 +20°C° 0 mm 2 mps 741 mmHg 55%
    16:00 +20°C° 0 mm 2 mps 740 mmHg 56%
    17:00 +19°C° 0 mm 2 mps 740 mmHg 61%
    18:00 +18°C° 0 mm 2 mps 740 mmHg 65%
    19:00 +18°C° 0 mm 1 mps 739 mmHg 69%
    20:00 +16°C° 0 mm 2 mps 740 mmHg 72%
    21:00 +15°C° 0 mm 2 mps 740 mmHg 74%
    22:00 +14°C° 0 mm 2 mps 740 mmHg 77%
    23:00 +13°C° 0 mm 2 mps 740 mmHg 82%

    25 May, Saturday

    Time Temperature Precipitation Wind Pressure Humidity
    00:00 +12°C° 0 mm 2 mps 739 mmHg 87%
    01:00 +12°C° 0 mm 2 mps 739 mmHg 92%
    02:00 +10°C° 0 mm 3 mps 739 mmHg 93%
    03:00 +10°C° 0 mm 3 mps 739 mmHg 94%
    04:00 +10°C° 0 mm 3 mps 739 mmHg 95%
    05:00 +11°C° 0 mm 3 mps 740 mmHg 91%
    06:00 +12°C° 0 mm 4 mps 740 mmHg 88%
    07:00 +13°C° 0 mm 4 mps 740 mmHg 84%
    08:00 +14°C° 0 mm 5 mps 740 mmHg 78%
    09:00 +15°C° 0 mm 5 mps 740 mmHg 73%
    10:00 +16°C° 0 mm 5 mps 740 mmHg 68%
    11:00 +17°C° 0 mm 6 mps 740 mmHg 64%
    12:00 +17°C° 0 mm 6 mps 740 mmHg 61%
    13:00 +19°C° 0 mm 6 mps 740 mmHg 57%
    14:00 +17°C° 0 mm 6 mps 740 mmHg 60%
    15:00 +17°C° 0 mm 5 mps 740 mmHg 62%
    16:00 +16°C° 0 mm 5 mps 740 mmHg 65%
    17:00 +15°C° 0 mm 4 mps 740 mmHg 69%
    18:00 +14°C° 0 mm 4 mps 740 mmHg 73%
    19:00 +13°C° 0 mm 3 mps 740 mmHg 77%
    20:00 +12°C° 0 mm 3 mps 740 mmHg 80%
    21:00 +10°C° 0 mm 3 mps 740 mmHg 84%
    22:00 +9°C° 0 mm 3 mps 740 mmHg 87%
    23:00 +9°C° 0 mm 3 mps 740 mmHg 88%

    26 May, Sunday

    Time Temperature Precipitation Wind Pressure Humidity
    00:00 +8°C° 0 mm 3 mps 740 mmHg 90%
    01:00 +8°C° 0 mm 3 mps 740 mmHg 91%
    02:00 +8°C° 0 mm 3 mps 740 mmHg 91%
    03:00 +7°C° 0 mm 4 mps 740 mmHg 92%
    04:00 +7°C° 0 mm 4 mps 739 mmHg 92%
    05:00 +8°C° 0 mm 5 mps 739 mmHg 87%
    06:00 +9°C° 0 mm 5 mps 739 mmHg 82%
    07:00 +10°C° 0 mm 6 mps 739 mmHg 77%
    08:00 +11°C° 0 mm 6 mps 739 mmHg 71%
    09:00 +13°C° 0 mm 6 mps 739 mmHg 65%
    10:00 +14°C° 0 mm 7 mps 739 mmHg 60%
    11:00 +14°C° 0.1 mm 7 mps 739 mmHg 62%
    12:00 +15°C° 0.1 mm 7 mps 739 mmHg 65%
    13:00 +15°C° 0.1 mm 8 mps 738 mmHg 67%
    14:00 +15°C° 0.1 mm 7 mps 738 mmHg 68%
    15:00 +15°C° 0.1 mm 7 mps 738 mmHg 70%
    16:00 +15°C° 0.1 mm 6 mps 738 mmHg 71%
    17:00 +14°C° 0 mm 5 mps 738 mmHg 74%
    18:00 +13°C° 0 mm 5 mps 738 mmHg 78%
    19:00 +13°C° 0 mm 4 mps 738 mmHg 81%
    20:00 +13°C° 0 mm 4 mps 738 mmHg 83%
    21:00 +12°C° 0 mm 4 mps 739 mmHg 85%
    22:00 +12°C° 0 mm 4 mps 739 mmHg 87%
    23:00 +12°C° 0 mm 4 mps 739 mmHg 90%

    27 May, Monday

    Time Temperature Precipitation Wind Pressure Humidity
    00:00 +11°C° 0 mm 3 mps 739 mmHg 92%
    01:00 +11°C° 0 mm 3 mps 739 mmHg 95%
    02:00 +11°C° 0.1 mm 3 mps 739 mmHg 96%
    03:00 +11°C° 0.1 mm 3 mps 739 mmHg 96%
    04:00 +12°C° 0.1 mm 2 mps 739 mmHg 97%
    05:00 +13°C° 0 mm 2 mps 739 mmHg 93%
    06:00 +13°C° 0 mm 3 mps 739 mmHg 90%
    07:00 +14°C° 0 mm 3 mps 739 mmHg 87%
    08:00 +16°C° 0.1 mm 3 mps 738 mmHg 82%
    09:00 +18°C° 0.1 mm 4 mps 738 mmHg 77%
    10:00 +19°C° 0.1 mm 5 mps 738 mmHg 72%
    11:00 +19°C° 0.8 mm 5 mps 738 mmHg 74%
    12:00 +19°C° 0.8 mm 5 mps 737 mmHg 76%
    13:00 +20°C° 0.8 mm 5 mps 737 mmHg 78%
    14:00 +20°C° 0.8 mm 6 mps 737 mmHg 78%
    15:00 +20°C° 0.8 mm 6 mps 737 mmHg 78%
    16:00 +20°C° 0.8 mm 6 mps 737 mmHg 78%
    17:00 +19°C° 0.3 mm 5 mps 737 mmHg 81%
    18:00 +18°C° 0.3 mm 4 mps 737 mmHg 84%
    19:00 +17°C° 0.3 mm 3 mps 737 mmHg 87%
    20:00 +16°C° 0 mm 3 mps 738 mmHg 89%
    21:00 +14°C° 0 mm 3 mps 738 mmHg 91%
    22:00 +14°C° 0 mm 2 mps 739 mmHg 93%
    23:00 +13°C° 0 mm 2 mps 739 mmHg 93%
    Show more